Le nostre stazioni meteo in Italia

Pubblicità
Il mio iltempo24.it
Cozzo Spadaro, Italia (16480): Temperatura & dewpoint: 14.08.2017 06:00:00 - 20.08.2017 06:00:00 (CEST)Cozzo Spadaro, Italia (16480): velocità del vento: 14.08.2017 06:00:00 - 20.08.2017 06:00:00 (CEST)Cozzo Spadaro, Italia (16480): direzione del vento: 14.08.2017 06:00:00 - 20.08.2017 06:00:00 (CEST)Cozzo Spadaro, Italia (16480): reduced air pressure: 14.08.2017 06:00:00 - 20.08.2017 06:00:00 (CEST)Cozzo Spadaro, Italia (16480): visibility: 14.08.2017 06:00:00 - 20.08.2017 06:00:00 (CEST)Cozzo Spadaro, Italia (16480): ore di luce: 14.08.2017 06:00:00 - 20.08.2017 06:00:00 (CEST)
Data & Tempo tt [°C] td [°C] ff [km/h] ff [kn] dd ppp [hPa] vv [km] sd [min]
20.08.2017 06:00:00 - - - - - - - -
20.08.2017 05:00:00 - - - - - - - -
20.08.2017 04:00:00 - - - - - - - -
20.08.2017 03:00:00 - - - - - - - -
20.08.2017 02:00:00 - - - - - - - -
20.08.2017 01:00:00 - - - - - - - -
20.08.2017 00:00:00 - - - - - - - -
19.08.2017 23:00:00 - - - - - - - -
19.08.2017 22:00:00 - - - - - - - -
19.08.2017 21:00:00 - - - - - - - -
19.08.2017 20:00:00 28,2 21,2 15 8 O 1013,0 20 0
19.08.2017 19:00:00 29,6 18,1 15 8 O 1013,2 20 48
19.08.2017 18:00:00 30,0 17,8 18 10 O 1013,6 20 60
19.08.2017 17:00:00 31,2 18,2 16 9 O 1013,8 20 60
19.08.2017 16:00:00 31,2 17,9 15 8 O 1013,8 20 60
19.08.2017 15:00:00 31,8 16,1 13 7 OSO 1014,6 20 60
19.08.2017 14:00:00 31,8 16,1 11 6 O 1014,7 20 60
19.08.2017 13:00:00 31,0 18,0 9 5 SSO 1014,8 18 60
19.08.2017 12:00:00 30,2 21,3 8 4 SSO 1014,9 14 60
19.08.2017 11:00:00 30,0 23,7 5 3 SE 1014,8 12 60
19.08.2017 10:00:00 28,8 21,6 5 3 ENE 1014,6 15 60
19.08.2017 09:00:00 28,6 20,3 0 0 N 1014,3 16 60
19.08.2017 08:00:00 28,0 17,2 0 0 N 1014,4 20 42
19.08.2017 07:00:00 - - - - - - - -
19.08.2017 06:00:00 - - - - - - - -
19.08.2017 05:00:00 - - - - - - - -
19.08.2017 04:00:00 - - - - - - - -
19.08.2017 03:00:00 - - - - - - - -
19.08.2017 02:00:00 - - - - - - - -
19.08.2017 01:00:00 - - - - - - - -
19.08.2017 00:00:00 - - - - - - - -
18.08.2017 23:00:00 - - - - - - - -
18.08.2017 22:00:00 - - - - - - - -
18.08.2017 21:00:00 - - - - - - - -
18.08.2017 20:00:00 28,0 22,5 5 3 O 1014,6 25 0
18.08.2017 19:00:00 28,0 21,5 8 4 O 1014,5 25 60
18.08.2017 18:00:00 28,8 21,6 5 3 SSO 1014,6 25 60
18.08.2017 17:00:00 29,0 23,0 5 3 S 1014,7 25 60
18.08.2017 16:00:00 29,8 23,0 4 2 SE 1014,6 25 60
18.08.2017 15:00:00 30,0 23,9 9 5 E 1014,8 25 -
18.08.2017 14:00:00 30,0 22,7 9 5 E 1014,9 25 60
18.08.2017 13:00:00 30,0 23,4 13 7 ENE 1015,8 25 60
18.08.2017 12:00:00 30,0 22,7 13 7 ENE 1015,7 25 60
18.08.2017 11:00:00 30,0 22,2 13 7 E 1015,4 25 60
18.08.2017 10:00:00 29,0 21,0 11 6 ENE 1014,9 25 60
18.08.2017 09:00:00 28,2 20,2 15 8 NE 1014,8 25 60
18.08.2017 08:00:00 27,0 19,4 16 9 ENE 1014,4 25 24
18.08.2017 07:00:00 - - - - - - - -
18.08.2017 06:00:00 - - - - - - - -
18.08.2017 05:00:00 - - - - - - - -
18.08.2017 04:00:00 - - - - - - - -
18.08.2017 03:00:00 - - - - - - - -
18.08.2017 02:00:00 - - - - - - - -
18.08.2017 01:00:00 - - - - - - - -
18.08.2017 00:00:00 - - - - - - - -
17.08.2017 23:00:00 - - - - - - - -
17.08.2017 22:00:00 - - - - - - - -
17.08.2017 21:00:00 - - - - - - - -
17.08.2017 20:00:00 27,4 21,7 11 6 NO 1012,9 25 0
17.08.2017 19:00:00 28,0 20,3 15 8 O 1012,9 25 54
17.08.2017 18:00:00 28,8 19,2 15 8 O 1013,1 25 60
17.08.2017 17:00:00 30,4 17,1 15 8 O 1013,1 25 60
17.08.2017 16:00:00 30,6 17,0 13 7 O 1013,3 25 60
17.08.2017 15:00:00 31,0 16,2 11 6 NNO 1013,9 25 60
17.08.2017 14:00:00 30,4 18,8 9 5 SO 1014,3 25 60
17.08.2017 13:00:00 30,0 19,7 5 3 SSE 1014,2 25 60
17.08.2017 12:00:00 30,2 19,6 5 3 E 1014,5 25 60
17.08.2017 11:00:00 29,8 21,2 8 4 E 1014,2 25 60
17.08.2017 10:00:00 30,0 18,8 8 4 E 1013,8 25 60
17.08.2017 09:00:00 28,4 17,0 4 2 O 1013,9 25 60
17.08.2017 08:00:00 25,8 20,4 4 2 OSO 1013,9 25 36
17.08.2017 07:00:00 - - - - - - - -
17.08.2017 06:00:00 - - - - - - - -
17.08.2017 05:00:00 - - - - - - - -
17.08.2017 04:00:00 - - - - - - - -
17.08.2017 03:00:00 - - - - - - - -
17.08.2017 02:00:00 - - - - - - - -
17.08.2017 01:00:00 - - - - - - - -
17.08.2017 00:00:00 - - - - - - - -
16.08.2017 23:00:00 - - - - - - - -
16.08.2017 22:00:00 - - - - - - - -
16.08.2017 21:00:00 - - - - - - - -
16.08.2017 20:00:00 26,4 21,6 9 5 O 1013,9 25 0
16.08.2017 19:00:00 27,4 21,0 9 5 OSO 1013,8 25 48
16.08.2017 18:00:00 28,4 19,9 13 7 O 1014,0 25 60
16.08.2017 17:00:00 30,0 14,1 11 6 O 1013,9 25 60
16.08.2017 16:00:00 30,8 16,8 9 5 OSO 1014,5 25 60
16.08.2017 15:00:00 30,2 18,0 9 5 SO 1014,8 25 60
16.08.2017 14:00:00 29,6 18,7 9 5 SO 1015,8 25 60
16.08.2017 13:00:00 29,8 18,9 8 4 SSE 1015,8 25 60
16.08.2017 12:00:00 30,0 17,1 5 3 ESE 1015,8 25 60
16.08.2017 11:00:00 30,0 16,8 4 2 SE 1015,8 25 60
16.08.2017 10:00:00 30,4 16,1 4 2 E 1015,7 25 60
16.08.2017 09:00:00 28,8 15,4 0 0 N 1015,8 25 60
16.08.2017 08:00:00 25,6 18,0 0 0 N 1015,8 25 42
16.08.2017 07:00:00 - - - - - - - -
16.08.2017 06:00:00 - - - - - - - -
16.08.2017 05:00:00 - - - - - - - -
16.08.2017 04:00:00 - - - - - - - -
16.08.2017 03:00:00 - - - - - - - -
16.08.2017 02:00:00 - - - - - - - -
16.08.2017 01:00:00 - - - - - - - -
16.08.2017 00:00:00 - - - - - - - -
15.08.2017 23:00:00 - - - - - - - -
15.08.2017 22:00:00 - - - - - - - -
15.08.2017 21:00:00 - - - - - - - -
15.08.2017 20:00:00 - - - - - - - -
15.08.2017 19:00:00 - - - - - - - -
15.08.2017 18:00:00 - - - - - - - -
15.08.2017 17:00:00 - - - - - - - -
15.08.2017 16:00:00 - - - - - - - -
15.08.2017 15:00:00 - - - - - - - -
15.08.2017 14:00:00 - - - - - - - -
15.08.2017 13:00:00 - - - - - - - -
15.08.2017 12:00:00 - - - - - - - -
15.08.2017 11:00:00 - - - - - - - -
15.08.2017 10:00:00 - - - - - - - -
15.08.2017 09:00:00 - - - - - - - -
15.08.2017 08:00:00 - - - - - - - -
15.08.2017 07:00:00 - - - - - - - -
15.08.2017 06:00:00 - - - - - - - -
15.08.2017 05:00:00 - - - - - - - -
15.08.2017 04:00:00 - - - - - - - -
15.08.2017 03:00:00 - - - - - - - -
15.08.2017 02:00:00 - - - - - - - -
15.08.2017 01:00:00 - - - - - - - -
15.08.2017 00:00:00 - - - - - - - -
14.08.2017 23:00:00 - - - - - - - -
14.08.2017 22:00:00 - - - - - - - -
14.08.2017 21:00:00 - - - - - - - -
14.08.2017 20:00:00 27,0 21,1 8 4 O 1016,1 20 24
14.08.2017 19:00:00 27,6 20,7 9 5 O 1016,1 25 60
14.08.2017 18:00:00 28,0 21,5 11 6 O 1016,4 25 60
14.08.2017 17:00:00 28,8 21,1 11 6 OSO 1016,7 25 60
14.08.2017 16:00:00 28,8 21,1 9 5 SO 1016,9 25 60
14.08.2017 15:00:00 29,0 21,5 5 3 SE 1017,0 25 60
14.08.2017 14:00:00 29,4 21,6 8 4 ESE 1017,2 25 60
14.08.2017 13:00:00 29,4 21,6 11 6 E 1017,1 25 60
14.08.2017 12:00:00 29,2 20,4 13 7 E 1017,2 25 60
14.08.2017 11:00:00 29,0 19,4 11 6 E 1016,9 25 60
14.08.2017 10:00:00 28,0 18,7 11 6 ENE 1016,2 25 60
14.08.2017 09:00:00 27,0 19,4 8 4 NE 1015,9 25 60
14.08.2017 08:00:00 25,6 19,3 5 3 NNE 1015,7 20 48
14.08.2017 07:00:00 - - - - - - - -
14.08.2017 06:00:00 - - - - - - - -

tt = Temperatura
td = dewpoint
ff = velocità del vento
dd = direzione del vento
ppp = reduced air pressure
vv = visibility
sd = ore di luce

Stazioni seguenti

WeatherPro
AMSI
MeteoEarth